Coatesville, PA

3:57 AM EST on November 20, 2019 (GMT -0500)
Chester County Carlson

Weather History for KMQS - September, 2019

Change the Weather History Date:

Monday, September 2, 2019

  Actual Average (KILG) Record (KILG)
Temperature  
Mean Temperature 72 °F -  
Max Temperature 80 °F 81 °F 100 °F (1953)
Min Temperature 64 °F 64 °F 49 °F (1948)
Cooling Degree Days 7    
Growing Degree Days 22 (Base 50)    
Moisture  
Dew Point 67 °F    
Average Humidity 88    
Maximum Humidity 100    
Minimum Humidity 65    
Precipitation  
Precipitation 0.00 in - - ()
Sea Level Pressure  
Sea Level Pressure 30.08 in    
Wind  
Wind Speed 4 mph ()    
Max Wind Speed 9 mph    
Max Gust Speed 16 mph    
Visibility 9.3 miles    
Events Rain    
Averages and records for this station are not official NWS values.
T = Trace of Precipitation, MM = Missing Value Source: Averaged Metar Reports

Daily Weather History Graph

Daily Weather History Graph

Search for Another Location

Airport or City:

Astronomy

Sep. 02, 2019 Rise Set
Actual Time 6:32 AM EDT 7:33 PM EDT
Civil Twilight 6:04 AM EDT 8:01 PM EDT
Nautical Twilight 5:31 AM EDT 8:34 PM EDT
Astronomical Twilight 4:56 AM EDT 9:08 PM EDT
Moon 10:11 AM EDT (9/2) 9:54 PM EDT (9/2)
Length of Visible Light 13h 57m
Length of Day
13h 01m
Waxing Crescent, 15% of the Moon is Illuminated
Sep 2
Waxing Crescent
Sep 5
First Quarter
Sep 14
Full
Sep 21
Last Quarter
Sep 28
New

Hourly Weather History & Observations

Time (EDT) Temp. Heat Index Dew Point Humidity Pressure Visibility Wind Dir Wind Speed Gust Speed Precip Events Conditions
12:15 AM 66.2 °F - 62.6 °F 88% 30.22 in 10.0 mi ESE 4.6 mph - N/A   Clear
12:35 AM 64.4 °F - 62.6 °F 94% 30.22 in 10.0 mi Variable 3.5 mph - N/A   Clear
12:55 AM 64.4 °F - 62.6 °F 94% 30.21 in 10.0 mi ESE 4.6 mph - N/A   Clear
1:15 AM 64.4 °F - 62.6 °F 94% 30.20 in 10.0 mi ESE 5.8 mph - N/A   Mostly Cloudy
1:35 AM 66.2 °F - 62.6 °F 88% 30.20 in 10.0 mi Calm Calm - N/A   Mostly Cloudy
1:55 AM 66.2 °F - 62.6 °F 88% 30.19 in 10.0 mi SE 4.6 mph - N/A   Overcast
2:15 AM 66.2 °F - 64.4 °F 94% 30.19 in 10.0 mi SE 4.6 mph - N/A   Overcast
2:35 AM 66.2 °F - 64.4 °F 94% 30.18 in 10.0 mi SE 3.5 mph - N/A   Overcast
2:55 AM 66.2 °F - 64.4 °F 94% 30.18 in 10.0 mi SE 3.5 mph - N/A   Mostly Cloudy
3:15 AM 66.2 °F - 64.4 °F 94% 30.16 in 10.0 mi SE 4.6 mph - N/A   Overcast
3:35 AM 66.2 °F - 64.4 °F 94% 30.15 in 10.0 mi SE 4.6 mph - N/A   Overcast
3:55 AM 66.2 °F - 64.4 °F 94% 30.15 in 10.0 mi Calm Calm - N/A   Overcast
4:15 AM 66.2 °F - 66.2 °F 100% 30.15 in 10.0 mi ESE 3.5 mph - N/A   Overcast
4:35 AM 66.2 °F - 66.2 °F 100% 30.15 in 10.0 mi Calm Calm - N/A   Overcast
4:55 AM 66.2 °F - 66.2 °F 100% 30.14 in 10.0 mi Variable 3.5 mph - N/A   Mostly Cloudy
5:15 AM 66.2 °F - 66.2 °F 100% 30.13 in 10.0 mi Variable 3.5 mph - N/A   Mostly Cloudy
5:35 AM 66.2 °F - 66.2 °F 100% 30.13 in 10.0 mi Variable 4.6 mph - N/A   Mostly Cloudy
5:55 AM 66.2 °F - 66.2 °F 100% 30.14 in 10.0 mi Calm Calm - N/A   Mostly Cloudy
6:15 AM 66.2 °F - 66.2 °F 100% 30.13 in 9.0 mi Calm Calm - N/A   Overcast
6:35 AM 68.0 °F - 66.2 °F 94% 30.13 in 7.0 mi Calm Calm - N/A   Overcast
6:55 AM 68.0 °F - 66.2 °F 94% 30.13 in 4.0 mi Calm Calm - N/A   Overcast
7:15 AM 68.0 °F - 68.0 °F 100% 30.13 in 4.0 mi Variable 3.5 mph - N/A   Overcast
7:35 AM 68.0 °F - 68.0 °F 100% 30.12 in 4.0 mi Variable 5.8 mph - N/A   Overcast
7:55 AM 68.0 °F - 68.0 °F 100% 30.12 in 4.0 mi Variable 5.8 mph - N/A   Overcast
8:15 AM 69.8 °F - 68.0 °F 94% 30.10 in 4.0 mi SSE 9.2 mph - N/A   Overcast
8:35 AM 69.8 °F - 69.8 °F 100% 30.11 in 6.0 mi South 8.1 mph - N/A   Overcast
8:55 AM 69.8 °F - 69.8 °F 100% 30.12 in 3.0 mi Variable 4.6 mph 11.5 mph N/A   Light Drizzle
9:35 AM 69.8 °F - 69.8 °F 100% 30.11 in 8.0 mi Calm Calm - N/A   Overcast
9:55 AM 69.8 °F - 69.8 °F 100% 30.09 in 8.0 mi Variable 4.6 mph - N/A   Overcast
10:15 AM 71.6 °F - 69.8 °F 94% 30.09 in 9.0 mi Variable 4.6 mph - N/A   Overcast
10:35 AM 71.6 °F - 69.8 °F 94% 30.09 in 10.0 mi Variable 6.9 mph - N/A   Overcast
10:55 AM 73.4 °F - 69.8 °F 88% 30.08 in 10.0 mi Variable 6.9 mph - N/A   Unknown
11:15 AM 73.4 °F - 69.8 °F 88% 30.08 in 10.0 mi Variable 5.8 mph - N/A   Overcast
11:35 AM 75.2 °F - 69.8 °F 83% 30.08 in 10.0 mi WSW 5.8 mph - N/A   Mostly Cloudy
11:55 AM 77.0 °F - 69.8 °F 78% 30.07 in 10.0 mi Variable 6.9 mph 12.7 mph N/A   Scattered Clouds
12:15 PM 75.2 °F - 69.8 °F 83% 30.07 in 10.0 mi Variable 4.6 mph - N/A   Light Drizzle
12:35 PM 77.0 °F - 69.8 °F 78% 30.06 in 10.0 mi Variable 5.8 mph - N/A   Mostly Cloudy
12:55 PM 77.0 °F - 69.8 °F 78% 30.05 in 10.0 mi Variable 4.6 mph - N/A   Mostly Cloudy
1:15 PM 80.6 °F 83.9 °F 69.8 °F 70% 30.04 in 10.0 mi Variable 5.8 mph - N/A   Mostly Cloudy
1:35 PM 78.8 °F - 68.0 °F 69% 30.04 in 10.0 mi Variable 5.8 mph 12.7 mph N/A   Scattered Clouds
1:55 PM 80.6 °F 83.2 °F 68.0 °F 65% 30.03 in 10.0 mi West 6.9 mph 15.0 mph N/A   Partly Cloudy
2:15 PM 80.6 °F 83.2 °F 68.0 °F 65% 30.02 in 10.0 mi Variable 6.9 mph - N/A   Scattered Clouds
2:35 PM 80.6 °F 83.2 °F 68.0 °F 65% 30.02 in 10.0 mi Variable 5.8 mph 11.5 mph N/A   Mostly Cloudy
2:55 PM 80.6 °F 83.2 °F 68.0 °F 65% 30.00 in 10.0 mi Variable 5.8 mph 12.7 mph N/A   Mostly Cloudy
3:15 PM 80.6 °F 83.2 °F 68.0 °F 65% 30.00 in 10.0 mi Variable 5.8 mph - N/A   Mostly Cloudy
3:35 PM 80.6 °F 83.2 °F 68.0 °F 65% 29.99 in 10.0 mi Variable 5.8 mph 11.5 mph N/A   Scattered Clouds
3:55 PM 78.8 °F - 68.0 °F 69% 30.00 in 10.0 mi North 9.2 mph 16.1 mph N/A   Scattered Clouds
4:15 PM 73.4 °F - 69.8 °F 88% 30.00 in 10.0 mi NNW 9.2 mph - N/A   Light Drizzle
4:35 PM 73.4 °F - 69.8 °F 88% 30.00 in 10.0 mi NNW 5.8 mph - N/A   Clear
4:55 PM 73.4 °F - 68.0 °F 83% 30.00 in 10.0 mi NW 4.6 mph - N/A   Clear
5:15 PM 75.2 °F - 69.8 °F 83% 29.99 in 10.0 mi NW 4.6 mph - N/A   Clear
5:35 PM 75.2 °F - 68.0 °F 78% 29.99 in 10.0 mi Calm Calm - N/A   Clear
5:55 PM 75.2 °F - 69.8 °F 83% 30.00 in 10.0 mi Calm Calm - N/A   Clear
6:15 PM 73.4 °F - 69.8 °F 88% 30.00 in 10.0 mi Calm Calm - N/A   Clear
6:35 PM 73.4 °F - 69.8 °F 88% 30.01 in 10.0 mi Calm Calm - N/A   Partly Cloudy
6:55 PM 73.4 °F - 69.8 °F 88% 30.00 in 10.0 mi Variable 4.6 mph - N/A   Clear
7:15 PM 71.6 °F - 68.0 °F 88% 30.00 in 10.0 mi WNW 4.6 mph - N/A   Clear
7:35 PM 71.6 °F - 68.0 °F 88% 30.00 in 10.0 mi West 5.8 mph - N/A Rain Light Rain
7:55 PM 71.6 °F - 68.0 °F 88% 30.01 in 8.0 mi West 6.9 mph 12.7 mph N/A Rain Light Rain
8:15 PM 69.8 °F - 68.0 °F 94% 30.00 in 10.0 mi Calm Calm - N/A   Clear
8:35 PM 68.0 °F - 68.0 °F 100% 30.01 in 10.0 mi WNW 4.6 mph - N/A   Clear
8:55 PM 69.8 °F - 68.0 °F 94% 30.02 in 10.0 mi NNW 4.6 mph - N/A   Partly Cloudy
9:15 PM 69.8 °F - 68.0 °F 94% 30.02 in 10.0 mi Calm Calm - N/A   Partly Cloudy
9:35 PM 69.8 °F - 66.2 °F 88% 30.03 in 10.0 mi Variable 5.8 mph - N/A   Scattered Clouds
9:55 PM 69.8 °F - 68.0 °F 94% 30.03 in 10.0 mi Calm Calm - N/A   Partly Cloudy
10:15 PM 69.8 °F - 68.0 °F 94% 30.04 in 10.0 mi West 3.5 mph - N/A   Scattered Clouds
10:35 PM 69.8 °F - 66.2 °F 88% 30.03 in 10.0 mi NW 6.9 mph - N/A   Partly Cloudy
10:55 PM 71.6 °F - 66.2 °F 83% 30.03 in 10.0 mi NW 8.1 mph - N/A   Partly Cloudy
11:15 PM 71.6 °F - 66.2 °F 83% 30.03 in 10.0 mi NNW 8.1 mph - N/A   Scattered Clouds
11:35 PM 69.8 °F - 66.2 °F 88% 30.03 in 10.0 mi NNW 6.9 mph - N/A   Partly Cloudy
11:55 PM 69.8 °F - 66.2 °F 88% 30.03 in 10.0 mi NNW 6.9 mph - N/A   Clear